DO3HUM-5 Weather Reports


Display with metric or nautical units.
time (UTC)temp
F
wind
direction
speed
MPH
gust
MPH
rain 1hr
in
rain 24hr
in
rain mn
in
humidity
%
barometer
mb
20210303023556 29 0.0 0.0 0.00 0.00 0.00 96 1025.7
20210303022757 29 0.0 0.0 0.00 0.00 0.00 96 1025.8
20210303021547 29 0.0 0.0 0.00 0.00 0.00 96 1025.9
20210303020542 29 0.0 0.0 0.00 0.00 0.00 96 1026.1
20210303015544 29 0.0 0.0 0.00 0.00 0.00 95 1026.2
20210303014533 29 0.0 0.0 0.00 0.00 0.00 95 1026.3
20210303013558 29 0.0 0.0 0.00 0.00 0.00 95 1026.5
20210303012744 29 0.0 0.0 0.00 0.00 0.00 95 1026.5
20210303011555 30 0.0 0.0 0.00 0.00 0.00 95 1026.7
20210303010546 30 0.0 0.0 0.00 0.00 0.00 95 1026.8
20210303005542 30 0.0 0.0 0.00 0.00 0.00 95 1026.7
20210303004545 30 0.0 0.0 0.00 0.00 0.00 94 1026.8
20210303002745 30 0.0 0.0 0.00 0.00 0.00 94 1026.8
20210303001529 30 0.0 0.0 0.00 0.00 0.00 94 1026.8
20210303000632 31 0.0 0.0 0.00 0.00 0.00 94 1026.9
20210302235538 31 0.0 0.0 0.00 0.00 0.00 94 1027.0
20210302234542 31 0.0 0.0 0.00 0.00 0.00 94 1027.1
20210302233613 31 0.0 0.0 0.00 0.00 0.00 94 1027.1
20210302232845 31 0.0 0.0 0.00 0.00 0.00 94 1027.2
20210302231601 32 0.0 0.0 0.00 0.00 0.00 94 1027.1
20210302230552 32 0.0 0.0 0.00 0.00 0.00 94 1027.1
20210302225555 32 0.0 0.0 0.00 0.00 0.00 93 1027.2
20210302224545 32 0.0 0.0 0.00 0.00 0.00 93 1027.4
20210302223548 32 0.0 0.0 0.00 0.00 0.00 93 1027.5
20210302222816 33 0.0 0.0 0.00 0.00 0.00 93 1027.5
20210302221559 33 0.0 0.0 0.00 0.00 0.00 93 1027.7
20210302220529 33 0.0 0.0 0.00 0.00 0.00 93 1027.7
20210302215525 33 0.0 0.0 0.00 0.00 0.00 93 1027.8
20210302214529 34 0.0 0.0 0.00 0.00 0.00 93 1027.7
20210302213629 33 0.0 0.0 0.00 0.00 0.00 92 1027.8
20210302212751 33 0.0 0.0 0.00 0.00 0.00 92 1027.7
20210302211603 33 0.0 0.0 0.00 0.00 0.00 92 1027.7
20210302210551 34 0.0 0.0 0.00 0.00 0.00 92 1027.8
20210302205546 34 0.0 0.0 0.00 0.00 0.00 91 1027.8
20210302204603 34 0.0 0.0 0.00 0.00 0.00 91 1027.7
20210302203541 35 0.0 0.0 0.00 0.00 0.00 91 1027.7
20210302202543 35 0.0 0.0 0.00 0.00 0.00 91 1027.7
20210302201553 35 0.0 0.0 0.00 0.00 0.00 91 1027.8
20210302200527 36 0.0 0.0 0.00 0.00 0.00 90 1028.0
20210302195606 36 0.0 0.0 0.00 0.00 0.00 90 1028.0
20210302194613 36 0.0 0.0 0.00 0.00 0.00 89 1028.0
20210302193610 37 0.0 0.0 0.00 0.00 0.00 90 1028.0
20210302192704 37 0.0 0.0 0.00 0.00 0.00 93 1028.1
20210302191603 38 0.0 0.0 0.00 0.00 0.00 94 1028.1
20210302190559 39 0.0 0.0 0.00 0.00 0.00 93 1028.2
20210302185704 40 0.0 0.0 0.00 0.00 0.00 93 1028.1
20210302184547 41 0.0 1.0 0.00 0.00 0.00 93 1028.1
20210302183545 40 0.0 1.0 0.00 0.00 0.00 92 1028.1
20210302182649 40 0.0 0.0 0.00 0.00 0.00 91 1028.1
20210302181536 40 0.0 0.0 0.00 0.00 0.00 91 1028.1
20210302180529 41 0.0 0.0 0.00 0.00 0.00 91 1028.2
20210302175530 42 0.0 0.0 0.00 0.00 0.00 89 1028.3
20210302174528 41 0.0 1.0 0.00 0.00 0.00 88 1028.3
20210302173619 42 0.0 0.0 0.00 0.00 0.00 87 1028.4
20210302172818 42 0.0 0.0 0.00 0.00 0.00 86 1028.3
20210302171613 42 0.0 0.0 0.00 0.00 0.00 84 1028.3
20210302170606 44 0.0 0.0 0.00 0.00 0.00 83 1028.3
20210302165659 44 0.0 0.0 0.00 0.00 0.00 82 1028.3
20210302164655 45 0.0 0.0 0.00 0.00 0.00 81 1028.3
20210302163913 47 0.0 0.0 0.00 0.00 0.00 82 1028.4
20210302163128 47 0.0 0.0 0.00 0.00 0.00 80 1028.4
20210302161556 48 0.0 0.0 0.00 0.00 0.00 79 1028.5
20210302160541 49 0.0 1.0 0.00 0.00 0.00 78 1028.4
20210302155536 49 0.0 1.0 0.00 0.00 0.00 78 1028.6
20210302154532 50 0.0 1.0 0.00 0.00 0.00 78 1028.6
20210302153911 50 0.0 1.0 0.00 0.00 0.00 77 1028.7
20210302152642 50 0.0 1.0 0.00 0.00 0.00 78 1028.6
20210302151555 50 0.0 1.0 0.00 0.00 0.00 78 1028.7
20210302150549 50 0.0 0.0 0.00 0.00 0.00 78 1028.8
20210302145840 50 0.0 2.0 0.00 0.00 0.00 79 1028.8
20210302144539 50 270 0.0 3.0 0.00 0.00 0.00 81 1028.8
20210302143549 50 225 0.0 2.0 0.00 0.00 0.00 81 1028.9
20210302142658 49 0.0 2.0 0.00 0.00 0.00 80 1029.0
20210302141529 49 225 0.0 2.0 0.00 0.00 0.00 79 1029.0
20210302140529 48 255 0.0 2.0 0.00 0.00 0.00 80 1029.1
20210302135531 48 233 1.0 4.0 0.00 0.00 0.00 80 1029.2
20210302134616 48 0.0 1.0 0.00 0.00 0.00 77 1029.2
20210302133618 48 225 0.0 2.0 0.00 0.00 0.00 74 1029.3
20210302132803 50 225 0.0 2.0 0.00 0.00 0.00 71 1029.3
20210302131607 51 0.0 0.0 0.00 0.00 0.00 67 1029.3
20210302130600 53 0.0 0.0 0.00 0.00 0.00 63 1029.5
20210302125556 56 0.0 2.0 0.00 0.00 0.00 62 1029.6
20210302124553 57 0.0 1.0 0.00 0.00 0.00 61 1029.6
20210302123553 57 0.0 1.0 0.00 0.00 0.00 66 1029.7
20210302123031 54 0.0 0.0 0.00 0.00 0.00 67 1029.8
20210302121533 55 0.0 2.0 0.00 0.00 0.00 69 1029.9
20210302120559 54 0.0 1.0 0.00 0.00 0.00 72 1030.0
20210302115555 53 0.0 0.0 0.00 0.00 0.00 78 1030.1
20210302114552 56 0.0 1.0 0.00 0.00 0.00 91 1030.3
20210302112818 43 0.0 1.0 0.00 0.00 0.00 98 1030.5
20210302111534 43 0.0 2.0 0.00 0.00 0.00 99 1030.7
20210302110644 42 0.0 1.0 0.00 0.00 0.00 99 1030.8
20210302105535 41 0.0 1.0 0.00 0.00 0.00 99 1030.8
20210302104613 42 0 0.0 2.0 0.00 0.00 0.00 99 1030.8
20210302103721 41 0.0 2.0 0.00 0.00 0.00 99 1030.9
20210302102812 41 0.0 2.0 0.00 0.00 0.00 99 1030.9
20210302101557 39 0.0 1.0 0.00 0.00 0.00 99 1030.9
20210302100623 39 0.0 1.0 0.00 0.00 0.00 99 1030.9
20210302095550 39 0.0 2.0 0.00 0.00 0.00 99 1031.0
20210302094542 39 0.0 2.0 0.00 0.00 0.00 99 1031.0
20210302093719 39 0.0 1.0 0.00 0.00 0.00 99 1030.9
20210302092812 39 0.0 2.0 0.00 0.00 0.00 99 1030.9
20210302091530 38 0.0 1.0 0.00 0.00 0.00 99 1030.8
20210302091057 38 0.0 2.0 0.00 0.00 0.00 99 1030.8
20210302085615 37 0.0 1.0 0.00 0.00 0.00 99 1030.8
20210302084611 37 0.0 1.0 0.00 0.00 0.00 97 1030.8
20210302083810 37 0.0 0.0 0.00 0.00 0.00 97 1030.8
20210302082644 37 0.0 2.0 0.00 0.00 0.00 97 1030.9
20210302081730 36 0.0 2.0 0.00 0.00 0.00 97 1030.8
20210302080557 36 0.0 1.0 0.00 0.00 0.00 97 1030.8
20210302075832 36 0.0 1.0 0.00 0.00 0.00 97 1030.7
20210302074551 36 0.0 0.0 0.00 0.00 0.00 97 1030.7
20210302073548 36 0.0 2.0 0.00 0.00 0.00 97 1030.7
20210302072648 36 0.0 2.0 0.00 0.00 0.00 97 1030.7
20210302071532 35 0.0 1.0 0.00 0.00 0.00 98 1030.6
20210302070526 35 0.0 1.0 0.00 0.00 0.00 98 1030.6
20210302065735 35 0.0 0.0 0.00 0.00 0.00 98 1030.6
20210302064522 35 0.0 0.0 0.00 0.00 0.00 98 1030.5
20210302063706 35 0.0 2.0 0.00 0.00 0.00 98 1030.6
20210302062323 35 0.0 0.0 0.00 0.00 0.00 97 1030.5
20210302060333 35 0.0 1.0 0.00 0.00 0.00 97 1030.5
20210302055229 35 0.0 0.0 0.00 0.00 0.00 97 1030.4
20210302053550 35 0.0 1.0 0.00 0.00 0.00 97 1030.4
20210302052711 35 0.0 0.0 0.00 0.00 0.00 97 1030.5
20210302051532 35 0.0 0.0 0.00 0.00 0.00 97 1030.6
20210302050529 35 0.0 0.0 0.00 0.00 0.00 97 1030.6
20210302045523 35 0.0 1.0 0.00 0.00 0.00 97 1030.5
20210302044617 35 0.0 0.0 0.00 0.00 0.00 97 1030.5
20210302043616 35 0.0 1.0 0.00 0.00 0.00 97 1030.5
20210302042706 35 0.0 1.0 0.00 0.00 0.00 97 1030.6
20210302041601 35 0.0 0.0 0.00 0.00 0.00 97 1030.5
20210302040555 35 0.0 0.0 0.00 0.00 0.00 97 1030.5
20210302035559 35 0.0 0.0 0.00 0.00 0.00 97 1030.4
20210302034548 35 0.0 0.0 0.00 0.00 0.00 97 1030.4
20210302033543 35 0.0 1.0 0.00 0.00 0.00 97 1030.4
20210302032637 36 0.0 0.0 0.00 0.00 0.00 96 1030.4
20210302031532 36 0.0 1.0 0.00 0.00 0.00 96 1030.4
20210302030530 36 0.0 0.0 0.00 0.00 0.00 95 1030.3
20210302025722 35 0.0 0.0 0.00 0.00 0.00 96 1030.4
20210302024530 35 0.0 0.0 0.00 0.00 0.00 96 1030.5